N0HOT Weather Reports


time (UTC)temp
F
wind
direction
speed
knots
gust
knots
rain 1hr
in
rain 24hr
in
rain mn
in
humidity
%
barometer
mb
20260906173116 79 181 0.0 0.9 0.00 0.00 0.00 62 1019.5
20260906172616 79 198 0.0 0.9 0.00 0.00 0.00 63 1019.8
20260906172112 79 70 0.0 0.0 0.00 0.00 0.00 65 1019.5
20260906171611 79 89 0.0 0.0 0.00 0.00 0.00 64 1019.8
20260906171107 78 94 0.0 0.0 0.00 0.00 0.00 65 1019.8
20260906170603 78 94 0.0 0.0 0.00 0.00 0.00 64 1019.8
20260906165558 77 66 0.0 0.0 0.00 0.00 0.00 65 1019.8
20260906165053 77 66 0.0 0.0 0.00 0.00 0.00 65 1019.8
20260906164552 77 66 0.0 0.0 0.00 0.00 0.00 65 1019.8
20260906164048 77 61 0.0 0.0 0.00 0.00 0.00 65 1019.8
20260906163543 77 68 0.0 0.0 0.00 0.00 0.00 65 1019.5
20260906163039 76 68 0.0 0.0 0.00 0.00 0.00 66 1019.8
20260906162536 76 68 0.0 0.0 0.00 0.00 0.00 66 1019.8
20260906162031 76 78 0.0 0.0 0.00 0.00 0.00 67 1019.5
20260906161526 75 72 0.0 0.0 0.00 0.00 0.00 69 1019.8
20260906161025 75 72 0.0 0.0 0.00 0.00 0.00 69 1019.8
20260906160524 75 72 0.0 0.0 0.00 0.00 0.00 70 1019.8
20260906160023 75 72 0.0 0.0 0.00 0.00 0.00 70 1019.5
20260906155520 74 72 0.0 0.0 0.00 0.00 0.00 71 1019.8
20260906155017 74 82 0.0 0.0 0.00 0.00 0.00 71 1019.8
20260906154512 74 82 0.0 0.0 0.00 0.00 0.00 74 1019.8
20260906154011 74 93 0.0 0.0 0.00 0.00 0.00 72 1019.8
20260906153509 74 59 0.0 0.0 0.00 0.00 0.00 71 1020.1
20260906153005 74 59 0.0 0.0 0.00 0.00 0.00 74 1019.8
20260906152459 73 62 0.0 0.0 0.00 0.00 0.00 74 1020.1
20260906151958 73 62 0.0 0.0 0.00 0.00 0.00 73 1019.8
20260906151454 72 66 0.0 0.0 0.00 0.00 0.00 73 1020.1
20260906150949 71 96 0.0 0.0 0.00 0.00 0.00 75 1020.1
20260906150444 70 89 0.0 0.0 0.00 0.00 0.00 76 1020.1
20260906145938 70 89 0.0 0.0 0.00 0.00 0.00 78 1020.1
20260906145438 69 68 0.0 0.0 0.00 0.00 0.00 84 1019.8
20260906144932 69 67 0.0 0.0 0.00 0.00 0.00 85 1019.8
20260906144427 68 68 0.0 0.0 0.00 0.00 0.00 87 1019.8
20260906143922 68 68 0.0 0.0 0.00 0.00 0.00 88 1019.8
20260906143418 68 68 0.0 0.0 0.00 0.00 0.00 88 1019.5
20260906142913 68 68 0.0 0.0 0.00 0.00 0.00 88 1019.5
20260906142407 68 68 0.0 0.0 0.00 0.00 0.00 89 1019.5
20260906141903 68 68 0.0 0.0 0.00 0.00 0.00 89 1019.5
20260906141401 68 68 0.0 0.0 0.00 0.00 0.00 89 1019.5
20260906140856 68 68 0.0 0.0 0.00 0.00 0.00 89 1019.5
20260906140351 67 68 0.0 0.0 0.00 0.00 0.00 89 1019.8
20260906135849 67 68 0.0 0.0 0.00 0.00 0.00 89 1019.5
20260906135349 67 68 0.0 0.0 0.00 0.00 0.00 89 1019.5
20260906134844 67 68 0.0 0.0 0.00 0.00 0.00 89 1019.5
20260906134339 66 68 0.0 0.0 0.00 0.00 0.00 89 1019.8
20260906133835 66 68 0.0 0.0 0.00 0.00 0.00 89 1019.8
20260906133330 66 68 0.0 0.0 0.00 0.00 0.00 89 1019.8
20260906132826 66 68 0.0 0.0 0.00 0.00 0.00 89 1020.1
20260906132320 65 68 0.0 0.0 0.00 0.00 0.00 89 1020.1
20260906131816 65 68 0.0 0.0 0.00 0.00 0.00 89 1020.1
20260906131306 65 68 0.0 0.0 0.00 0.00 0.00 89 1019.8
20260906130801 65 67 0.0 0.0 0.00 0.00 0.00 89 1020.1
20260906130256 65 67 0.0 0.0 0.00 0.00 0.00 89 1019.8
20260906125754 65 67 0.0 0.0 0.00 0.00 0.00 89 1019.8
20260906125253 65 68 0.0 0.0 0.00 0.00 0.00 89 1019.8
20260906124753 65 68 0.0 0.0 0.00 0.00 0.00 89 1019.8
20260906124249 64 67 0.0 0.0 0.00 0.00 0.00 89 1019.8
20260906123747 64 67 0.0 0.0 0.00 0.00 0.00 89 1019.8
20260906123243 64 67 0.0 0.0 0.00 0.00 0.00 89 1019.5
20260906122742 64 67 0.0 0.0 0.00 0.00 0.00 89 1019.5
20260906122238 64 68 0.0 0.0 0.00 0.00 0.00 89 1019.5
20260906121734 64 68 0.0 0.0 0.00 0.00 0.00 89 1019.5
20260906121230 64 68 0.0 0.0 0.00 0.00 0.00 88 1019.5
20260906120725 64 68 0.0 0.0 0.00 0.00 0.00 89 1019.5
20260906120222 64 68 0.0 0.0 0.00 0.00 0.00 88 1019.1
20260906115718 64 68 0.0 0.0 0.00 0.00 0.00 88 1019.5
20260906115213 64 68 0.0 0.0 0.00 0.00 0.00 88 1019.5
20260906114712 64 67 0.0 0.0 0.00 0.00 0.00 88 1019.5
20260906114207 64 68 0.0 0.0 0.00 0.00 0.00 88 1019.5
20260906113702 64 68 0.0 0.0 0.00 0.00 0.00 88 1019.1
20260906113201 64 68 0.0 0.0 0.00 0.00 0.00 88 1019.1
20260906112701 64 67 0.0 0.0 0.00 0.00 0.00 88 1019.1
20260906112158 64 68 0.0 0.0 0.00 0.00 0.00 88 1018.8
20260906111657 64 68 0.0 0.0 0.00 0.00 0.00 88 1018.5
20260906111152 65 68 0.0 0.0 0.00 0.00 0.00 88 1018.8
20260906110647 64 68 0.0 0.0 0.00 0.00 0.00 88 1018.5
20260906110142 64 68 0.0 0.0 0.00 0.00 0.00 88 1018.5
20260906105636 64 68 0.0 0.0 0.00 0.00 0.00 88 1018.5
20260906105133 65 67 0.0 0.0 0.00 0.00 0.00 88 1018.5
20260906104632 65 68 0.0 0.0 0.00 0.00 0.00 88 1018.5
20260906104131 65 68 0.0 0.0 0.00 0.00 0.00 88 1018.5
20260906103629 65 67 0.0 0.0 0.00 0.00 0.00 88 1018.5
20260906103124 65 67 0.0 0.0 0.00 0.00 0.00 88 1018.5
20260906102619 65 67 0.0 0.0 0.00 0.00 0.00 88 1018.5
20260906102108 65 68 0.0 0.0 0.00 0.00 0.00 88 1018.5
20260906101603 65 68 0.0 0.0 0.00 0.00 0.00 88 1018.1
20260906101103 65 68 0.0 0.0 0.00 0.00 0.00 88 1018.1
20260906100558 65 67 0.0 0.0 0.00 0.00 0.00 88 1018.1
20260906100053 65 67 0.0 0.0 0.00 0.00 0.00 88 1018.1
20260906095553 65 68 0.0 0.0 0.00 0.00 0.00 88 1018.1
20260906095049 65 68 0.0 0.0 0.00 0.00 0.00 88 1018.5
20260906094547 65 67 0.0 0.0 0.00 0.00 0.00 88 1018.1
20260906094043 66 67 0.0 0.0 0.00 0.00 0.00 88 1018.5
20260906093539 66 68 0.0 0.0 0.00 0.00 0.00 88 1018.1
20260906093034 66 68 0.0 0.0 0.00 0.00 0.00 88 1018.1
20260906092529 66 68 0.0 0.0 0.00 0.00 0.00 88 1018.1
20260906092024 66 68 0.0 0.0 0.00 0.00 0.00 88 1017.8
20260906091520 66 68 0.0 0.0 0.00 0.00 0.00 88 1017.8
20260906091016 66 68 0.0 0.0 0.00 0.00 0.00 88 1017.8
20260906090516 66 68 0.0 0.0 0.00 0.00 0.00 88 1017.8
20260906090011 66 68 0.0 0.0 0.00 0.00 0.00 88 1017.8
20260906085510 66 68 0.0 0.0 0.00 0.00 0.00 88 1017.8
20260906085009 66 68 0.0 0.0 0.00 0.00 0.00 88 1017.8
20260906084504 66 67 0.0 0.0 0.00 0.00 0.00 88 1018.1
20260906084003 66 68 0.0 0.0 0.00 0.00 0.00 88 1018.1
20260906083459 66 68 0.0 0.0 0.00 0.00 0.00 88 1017.8
20260906082958 66 68 0.0 0.0 0.00 0.00 0.00 88 1017.8
20260906082453 66 68 0.0 0.0 0.00 0.00 0.00 88 1018.1
20260906081949 66 67 0.0 0.0 0.00 0.00 0.00 88 1018.1
20260906081444 66 68 0.0 0.0 0.00 0.00 0.00 88 1018.1
20260906080940 67 68 0.0 0.0 0.00 0.00 0.00 88 1018.1
20260906080437 67 67 0.0 0.0 0.00 0.00 0.00 88 1018.1
20260906075937 67 67 0.0 0.0 0.00 0.00 0.00 88 1018.1
20260906075431 67 68 0.0 0.0 0.00 0.00 0.00 88 1017.8
20260906074926 67 68 0.0 0.0 0.00 0.00 0.00 88 1017.8
20260906074421 67 67 0.0 0.0 0.00 0.00 0.00 88 1017.8
20260906073920 67 68 0.0 0.0 0.00 0.00 0.00 88 1017.8
20260906073415 67 68 0.0 0.0 0.00 0.00 0.00 88 1017.8
20260906072911 67 67 0.0 0.0 0.00 0.00 0.00 88 1017.3
20260906072406 67 67 0.0 0.0 0.00 0.00 0.00 88 1017.8
20260906071901 67 68 0.0 0.0 0.00 0.00 0.00 88 1018.1
20260906071357 67 67 0.0 0.0 0.00 0.00 0.00 88 1017.8
20260906070853 67 68 0.0 0.0 0.00 0.00 0.00 88 1017.8
20260906070349 67 67 0.0 0.0 0.00 0.00 0.00 88 1018.1
20260906065844 67 68 0.0 0.0 0.00 0.00 0.00 88 1018.1
20260906065339 67 67 0.0 0.0 0.00 0.00 0.00 88 1018.1
20260906064834 67 67 0.0 0.0 0.00 0.00 0.00 88 1018.1
20260906064330 67 67 0.0 0.0 0.00 0.00 0.00 88 1018.1
20260906063824 67 67 0.0 0.0 0.00 0.00 0.00 88 1018.1
20260906063320 67 67 0.0 0.0 0.00 0.00 0.00 88 1018.5
20260906062815 67 67 0.0 0.0 0.00 0.00 0.00 88 1018.5
20260906062314 67 67 0.0 0.0 0.00 0.00 0.00 88 1018.5
20260906061810 67 68 0.0 0.0 0.00 0.00 0.00 87 1018.1
20260906061306 68 67 0.0 0.0 0.00 0.00 0.00 87 1018.1
20260906060801 68 67 0.0 0.0 0.00 0.00 0.00 87 1018.5
20260906060259 68 67 0.0 0.0 0.00 0.00 0.00 87 1018.5
20260906055754 68 67 0.0 0.0 0.00 0.00 0.00 87 1018.1
20260906055249 68 67 0.0 0.0 0.00 0.00 0.00 87 1018.1
20260906054745 68 67 0.0 0.0 0.00 0.00 0.00 87 1018.1
20260906054240 68 67 0.0 0.0 0.00 0.00 0.00 87 1018.5
20260906053737 68 67 0.0 0.0 0.00 0.00 0.00 87 1018.1
20260906053232 68 67 0.0 0.0 0.00 0.00 0.00 87 1018.1
20260906052727 68 67 0.0 0.0 0.00 0.00 0.00 87 1018.5
20260906052223 68 67 0.0 0.0 0.00 0.00 0.00 87 1018.1
20260906051720 68 67 0.0 0.0 0.00 0.00 0.00 87 1018.1
20260906051219 68 67 0.0 0.0 0.00 0.00 0.00 87 1018.1
20260906050714 68 68 0.0 0.0 0.00 0.00 0.00 87 1018.1
20260906050210 68 67 0.0 0.0 0.00 0.00 0.00 87 1018.1
20260906045708 68 67 0.0 0.0 0.00 0.00 0.00 87 1018.1
20260906045203 68 67 0.0 0.0 0.00 0.00 0.00 86 1018.1
20260906044659 68 67 0.0 0.0 0.00 0.00 0.00 86 1018.1
20260906044154 68 67 0.0 0.0 0.00 0.00 0.00 86 1018.1
20260906043650 69 67 0.0 0.0 0.00 0.00 0.00 86 1017.8
20260906043145 69 68 0.0 0.0 0.00 0.00 0.00 86 1018.1
20260906042645 69 67 0.0 0.0 0.00 0.00 0.00 86 1018.1
20260906042139 69 67 0.0 0.0 0.00 0.00 0.00 86 1018.1
20260906041629 69 67 0.0 0.0 0.00 0.00 0.00 86 1018.5
20260906041124 69 67 0.0 0.0 0.00 0.00 0.00 85 1018.1
20260906040619 69 67 0.0 0.0 0.00 0.00 0.00 85 1018.1
20260906040115 69 67 0.0 0.0 0.00 0.00 0.00 85 1017.8
20260906035610 69 67 0.0 0.0 0.00 0.00 0.00 85 1018.1
20260906035105 69 67 0.0 0.0 0.00 0.00 0.00 85 1018.1
20260906034600 69 67 0.0 0.0 0.00 0.00 0.00 85 1018.1
20260906034054 69 67 0.0 0.0 0.00 0.00 0.00 85 1018.1
20260906033549 69 67 0.0 0.0 0.00 0.00 0.00 84 1017.8
20260906033045 69 67 0.0 0.0 0.00 0.00 0.00 84 1018.1
20260906032541 69 67 0.0 0.0 0.00 0.00 0.00 83 1017.8
20260906032036 69 67 0.0 0.0 0.00 0.00 0.00 83 1017.3
20260906031532 69 67 0.0 0.0 0.00 0.00 0.00 83 1017.3
20260906031028 70 67 0.0 0.0 0.00 0.00 0.00 83 1017.3
20260906030527 70 67 0.0 0.0 0.00 0.00 0.00 82 1017.3
20260906030026 70 67 0.0 0.0 0.00 0.00 0.00 82 1017.3
20260906025526 70 67 0.0 0.0 0.00 0.00 0.00 82 1017.3
20260906025024 70 67 0.0 0.0 0.00 0.00 0.00 81 1017.3
20260906024520 70 67 0.0 0.0 0.00 0.00 0.00 81 1017.3
20260906024020 70 67 0.0 0.0 0.00 0.00 0.00 81 1017.0
20260906023516 71 67 0.0 0.0 0.00 0.00 0.00 80 1017.0
20260906023011 71 67 0.0 0.0 0.00 0.00 0.00 80 1017.0
20260906022506 71 67 0.0 0.0 0.00 0.00 0.00 80 1017.0
20260906022001 71 67 0.0 0.0 0.00 0.00 0.00 79 1016.7
20260906021456 71 67 0.0 0.0 0.00 0.00 0.00 79 1017.0
20260906020950 71 67 0.0 0.0 0.00 0.00 0.00 78 1016.7
20260906020445 72 67 0.0 0.0 0.00 0.00 0.00 78 1016.3
20260906015944 72 67 0.0 0.0 0.00 0.00 0.00 78 1016.3
20260906015444 72 67 0.0 0.0 0.00 0.00 0.00 78 1016.3
20260906014944 72 67 0.0 0.0 0.00 0.00 0.00 78 1016.3
20260906014438 72 67 0.0 0.0 0.00 0.00 0.00 77 1016.3
20260906013934 72 67 0.0 0.0 0.00 0.00 0.00 77 1016.0
20260906013429 72 67 0.0 0.0 0.00 0.00 0.00 77 1015.6
20260906012925 73 67 0.0 0.0 0.00 0.00 0.00 77 1015.6
20260906012425 73 67 0.0 0.9 0.00 0.00 0.00 77 1015.6
20260906011924 73 67 0.9 0.9 0.00 0.00 0.00 76 1015.6
20260906011420 73 67 0.0 0.0 0.00 0.00 0.00 76 1015.3
20260906010915 73 67 0.0 0.0 0.00 0.00 0.00 76 1015.6
20260906010411 73 67 0.0 0.0 0.00 0.00 0.00 76 1015.6
20260906005907 74 67 0.0 0.9 0.00 0.00 0.00 76 1015.6
20260906005406 74 68 0.0 0.0 0.00 0.00 0.00 76 1015.3
20260906004904 74 67 0.0 0.0 0.00 0.00 0.00 76 1015.6
20260906004359 75 67 0.9 0.9 0.00 0.00 0.00 76 1015.6
20260906003854 75 68 0.0 0.0 0.00 0.00 0.00 73 1015.6
20260906003350 75 68 0.0 0.0 0.00 0.00 0.00 73 1015.3
20260906002845 75 68 0.0 0.0 0.00 0.00 0.00 72 1015.3
20260906002344 75 68 0.0 0.0 0.00 0.00 0.00 72 1015.3
20260906001840 75 68 0.0 0.0 0.00 0.00 0.00 73 1015.3
20260906001336 75 68 0.0 0.0 0.00 0.00 0.00 72 1015.3
20260906000831 75 68 0.0 0.0 0.00 0.00 0.00 72 1015.3
20260906000326 75 68 0.0 0.0 0.00 0.00 0.00 72 1015.3
20260905235826 76 68 0.0 0.0 0.00 0.00 0.00 72 1015.3
20260905235320 76 68 0.0 0.0 0.00 0.00 0.00 72 1015.3
20260905234815 76 68 0.9 0.9 0.00 0.00 0.00 72 1015.3
20260905234310 76 68 0.0 0.0 0.00 0.00 0.00 72 1015.3
20260905233805 76 68 0.0 0.0 0.00 0.00 0.00 72 1015.3
20260905233300 76 68 0.0 0.0 0.00 0.00 0.00 71 1015.3
20260905232759 77 68 0.0 0.0 0.00 0.00 0.00 71 1015.3
20260905232255 77 68 0.9 0.9 0.00 0.00 0.00 70 1015.0
20260905231751 77 68 0.9 0.9 0.00 0.00 0.00 70 1015.0
20260905231246 77 68 0.9 0.9 0.00 0.00 0.00 70 1015.0
20260905230742 77 68 0.9 0.9 0.00 0.00 0.00 70 1015.0
20260905230240 77 68 0.9 0.9 0.00 0.00 0.00 71 1015.3
20260905225739 77 68 0.9 0.9 0.00 0.00 0.00 71 1015.3
20260905225235 77 68 0.0 0.0 0.00 0.00 0.00 71 1015.3
20260905224734 78 68 0.0 0.9 0.00 0.00 0.00 71 1015.6
20260905224230 78 68 0.0 0.0 0.00 0.00 0.00 72 1015.6
20260905223726 78 68 0.0 0.0 0.00 0.00 0.00 72 1015.6
20260905223222 78 68 0.0 0.0 0.00 0.00 0.00 71 1015.6
20260905222718 78 68 0.0 0.9 0.00 0.00 0.00 72 1015.6
20260905222217 79 68 0.0 0.0 0.00 0.00 0.00 71 1015.6
20260905221713 79 68 0.9 0.9 0.00 0.00 0.00 70 1015.3
20260905221210 79 68 0.9 0.9 0.00 0.00 0.00 70 1015.3
20260905220705 80 68 0.9 0.9 0.00 0.00 0.00 69 1015.3
20260905220201 80 68 0.0 0.9 0.00 0.00 0.00 69 1015.3
20260905215700 80 53 1.7 1.7 0.00 0.00 0.00 69 1015.0
20260905215156 80 53 0.9 0.9 0.00 0.00 0.00 68 1015.3
20260905214652 80 53 0.0 0.0 0.00 0.00 0.00 68 1015.3
20260905214147 80 53 0.0 0.0 0.00 0.00 0.00 68 1015.3
20260905213642 80 53 0.0 0.0 0.00 0.00 0.00 68 1015.6
20260905213138 81 53 0.0 0.9 0.00 0.00 0.00 67 1015.3
20260905212633 81 45 0.0 0.0 0.00 0.00 0.00 68 1015.3
20260905212132 81 45 0.0 0.9 0.00 0.00 0.00 67 1015.3
20260905211627 81 45 0.0 0.0 0.00 0.00 0.00 66 1015.6
20260905211123 82 45 0.0 0.0 0.00 0.00 0.00 65 1015.6
20260905210619 82 45 0.0 0.0 0.00 0.00 0.00 67 1015.6
20260905210113 82 45 0.0 0.0 0.00 0.00 0.00 65 1015.6
20260905205613 83 45 0.0 0.0 0.00 0.00 0.00 64 1015.6
20260905205113 83 37 0.0 0.0 0.00 0.00 0.00 66 1015.6
20260905204612 84 37 0.0 0.0 0.00 0.00 0.00 63 1016.0
20260905204108 84 37 0.0 0.0 0.00 0.00 0.00 65 1016.0
20260905203602 85 37 0.0 0.9 0.00 0.00 0.00 63 1015.6
20260905203057 85 26 0.0 0.0 0.00 0.00 0.00 62 1016.0
20260905202048 85 57 0.0 0.0 0.00 0.00 0.00 61 1016.0
20260905201544 84 344 0.0 0.0 0.00 0.00 0.00 59 1016.0
20260905201043 84 81 0.0 0.0 0.00 0.00 0.00 62 1016.0
20260905200538 84 100 0.0 0.0 0.00 0.00 0.00 60 1015.6
20260905200038 83 80 0.0 0.0 0.00 0.00 0.00 59 1016.3
20260905195532 83 64 0.0 0.0 0.00 0.00 0.00 61 1016.0
20260905195027 83 93 0.9 0.9 0.00 0.00 0.00 61 1016.0
20260905194522 83 229 0.0 0.9 0.00 0.00 0.00 61 1016.0
20260905194022 82 178 0.9 0.9 0.00 0.00 0.00 62 1016.3
20260905193522 82 340 0.9 1.7 0.00 0.00 0.00 62 1016.3
20260905193017 81 355 0.0 0.9 0.00 0.00 0.00 62 1016.3
20260905192512 81 206 0.9 0.9 0.00 0.00 0.00 63 1016.7
20260905192009 81 321 0.0 0.0 0.00 0.00 0.00 64 1016.3
20260905191507 81 265 0.0 0.0 0.00 0.00 0.00 67 1016.7
20260905191007 80 275 0.9 0.9 0.00 0.00 0.00 68 1016.7
20260905190504 80 343 0.0 0.9 0.00 0.00 0.00 68 1016.7
20260905190004 80 304 0.9 0.9 0.00 0.00 0.00 65 1016.7
20260905185458 80 62 0.0 0.0 0.00 0.00 0.00 67 1016.7
20260905184957 80 1 0.0 0.9 0.00 0.00 0.00 68 1016.3
20260905184452 80 336 0.0 0.0 0.00 0.00 0.00 68 1017.0
20260905183951 80 342 0.0 0.9 0.00 0.00 0.00 69 1016.7
20260905183451 80 336 0.9 0.9 0.00 0.00 0.00 68 1016.7
20260905182946 80 357 0.9 0.9 0.00 0.00 0.00 67 1016.7
20260905182445 80 11 0.9 0.9 0.00 0.00 0.00 65 1016.7
20260905181941 80 344 0.9 1.7 0.00 0.00 0.00 65 1016.7
20260905181441 80 85 0.0 0.0 0.00 0.00 0.00 67 1016.7
20260905180940 80 87 0.0 0.0 0.00 0.00 0.00 70 1016.7
20260905180435 80 88 0.0 0.9 0.00 0.00 0.00 70 1016.7
20260905175931 79 88 0.0 0.0 0.00 0.00 0.00 72 1016.7
20260905175429 79 100 0.0 0.0 0.00 0.00 0.00 72 1016.7
20260905174925 79 49 0.0 0.0 0.00 0.00 0.00 72 1016.7
20260905174421 79 49 0.0 0.9 0.00 0.00 0.00 70 1016.7
20260905173916 78 49 0.0 0.0 0.00 0.00 0.00 74 1016.7
20260905173413 78 49 0.0 0.0 0.00 0.00 0.00 73 1016.7